Time,TemperatureF,DewpointF,PressureIn,WindDirection,WindDirectionDegrees,WindSpeedMPH,WindSpeedGustMPH,Humidity,HourlyPrecipIn,Conditions,Clouds,dailyrainin,SoftwareType,DateUTC
2013-06-30 00:01:00,62.4,53.3,24.95,WNW,299,3.1,4.0,72,0.00,,---,0.00,VWS V14.01,2013-06-30 06:01:00,
2013-06-30 00:06:00,62.2,53.5,24.95,WNW,289,4.0,7.6,73,0.00,,---,0.00,VWS V14.01,2013-06-30 06:06:00,
2013-06-30 00:11:00,61.9,53.5,24.95,SW,224,5.8,5.8,74,0.00,,---,0.00,VWS V14.01,2013-06-30 06:11:00,
2013-06-30 00:16:00,61.5,53.2,24.95,SW,229,4.9,5.4,74,0.00,,---,0.00,VWS V14.01,2013-06-30 06:16:00,
2013-06-30 00:21:00,61.2,53.2,24.95,West,277,4.0,6.3,75,0.00,,---,0.00,VWS V14.01,2013-06-30 06:21:00,
2013-06-30 00:26:00,61.2,53.5,24.95,West,265,3.1,4.9,76,0.00,,---,0.00,VWS V14.01,2013-06-30 06:26:00,
2013-06-30 00:31:00,61.3,53.4,24.95,WSW,258,5.8,5.8,75,0.00,,---,0.00,VWS V14.01,2013-06-30 06:31:00,
2013-06-30 00:36:00,61.3,52.6,24.95,WNW,297,3.1,5.8,73,0.00,,---,0.00,VWS V14.01,2013-06-30 06:36:00,
2013-06-30 00:41:00,61.2,52.5,24.95,West,279,5.8,5.8,73,0.00,,---,0.00,VWS V14.01,2013-06-30 06:41:00,
2013-06-30 00:46:00,60.6,52.3,24.95,WNW,288,6.3,6.3,74,0.00,,---,0.00,VWS V14.01,2013-06-30 06:46:00,
2013-06-30 00:51:00,60.4,52.5,24.95,West,262,5.8,6.3,75,0.00,,---,0.00,VWS V14.01,2013-06-30 06:51:00,
2013-06-30 00:56:00,60.3,53.0,24.95,WSW,238,8.7,8.7,77,0.00,,---,0.00,VWS V14.01,2013-06-30 06:56:00,
2013-06-30 01:01:00,59.9,53.0,24.95,WSW,256,7.6,7.6,78,0.00,,---,0.00,VWS V14.01,2013-06-30 07:01:00,
2013-06-30 01:06:00,59.7,52.9,24.95,WSW,247,6.3,7.6,78,0.00,,---,0.00,VWS V14.01,2013-06-30 07:06:00,
2013-06-30 01:11:00,59.5,52.7,24.95,WNW,288,6.3,7.6,78,0.00,,---,0.00,VWS V14.01,2013-06-30 07:11:00,
2013-06-30 01:15:00,59.4,52.5,24.95,West,270,6.3,6.3,78,0.00,,---,0.00,VWS V14.01,2013-06-30 07:15:00,
2013-06-30 01:20:00,59.5,52.7,24.95,WNW,294,4.9,5.8,78,0.00,,---,0.00,VWS V14.01,2013-06-30 07:20:00,
2013-06-30 01:25:00,59.4,52.9,24.95,West,273,5.8,5.8,79,0.00,,---,0.00,VWS V14.01,2013-06-30 07:25:00,
2013-06-30 01:30:00,59.0,52.5,24.95,WNW,297,4.5,4.9,79,0.00,,---,0.00,VWS V14.01,2013-06-30 07:30:00,
2013-06-30 01:35:00,58.8,53.0,24.95,WSW,246,3.6,4.9,81,0.00,,---,0.00,VWS V14.01,2013-06-30 07:35:00,
2013-06-30 01:40:00,58.6,52.8,24.92,SW,229,5.4,5.4,81,0.00,,---,0.00,VWS V14.01,2013-06-30 07:40:00,
2013-06-30 01:45:00,58.6,52.5,24.92,WSW,256,4.0,5.8,80,0.00,,---,0.00,VWS V14.01,2013-06-30 07:45:00,
2013-06-30 01:50:00,58.5,52.3,24.92,WSW,248,4.0,7.6,80,0.00,,---,0.00,VWS V14.01,2013-06-30 07:50:00,
2013-06-30 01:55:00,58.5,52.7,24.95,West,268,6.3,7.6,81,0.00,,---,0.00,VWS V14.01,2013-06-30 07:55:00,
2013-06-30 02:00:00,58.5,52.7,24.95,WSW,253,4.9,6.3,81,0.00,,---,0.00,VWS V14.01,2013-06-30 08:00:00,
2013-06-30 02:05:00,58.5,52.7,24.95,West,268,4.0,5.4,81,0.00,,---,0.00,VWS V14.01,2013-06-30 08:05:00,
2013-06-30 02:10:00,58.5,52.3,24.95,WNW,288,5.4,6.3,80,0.00,,---,0.00,VWS V14.01,2013-06-30 08:10:00,
2013-06-30 02:15:00,58.5,52.3,24.95,WSW,242,5.4,6.3,80,0.00,,---,0.00,VWS V14.01,2013-06-30 08:15:00,
2013-06-30 02:20:00,58.3,52.2,24.95,SW,236,5.8,5.8,80,0.00,,---,0.00,VWS V14.01,2013-06-30 08:20:00,
2013-06-30 02:25:00,58.1,52.3,24.95,West,265,6.3,8.7,81,0.00,,---,0.00,VWS V14.01,2013-06-30 08:25:00,
2013-06-30 02:30:00,57.9,52.1,24.95,West,261,6.3,8.1,81,0.00,,---,0.00,VWS V14.01,2013-06-30 08:30:00,
2013-06-30 02:35:00,57.4,51.6,24.95,West,277,5.8,7.6,81,0.00,,---,0.00,VWS V14.01,2013-06-30 08:35:00,
2013-06-30 02:40:00,57.2,51.8,24.92,WSW,258,4.9,7.6,82,0.00,,---,0.00,VWS V14.01,2013-06-30 08:40:00,
2013-06-30 02:45:00,57.2,52.1,24.92,WSW,248,5.8,6.3,83,0.00,,---,0.00,VWS V14.01,2013-06-30 08:45:00,
2013-06-30 02:50:00,57.2,52.1,24.92,WSW,254,4.9,8.1,83,0.00,,---,0.00,VWS V14.01,2013-06-30 08:50:00,
2013-06-30 02:55:00,57.2,52.1,24.92,SW,230,4.0,4.9,83,0.00,,---,0.00,VWS V14.01,2013-06-30 08:55:00,
2013-06-30 03:00:00,57.4,52.3,24.92,SW,236,5.8,5.8,83,0.00,,---,0.00,VWS V14.01,2013-06-30 09:00:00,
2013-06-30 03:05:00,57.6,52.1,24.92,WSW,242,5.4,6.7,82,0.00,,---,0.00,VWS V14.01,2013-06-30 09:05:00,
2013-06-30 03:10:00,57.6,51.8,24.92,West,262,6.3,6.3,81,0.00,,---,0.00,VWS V14.01,2013-06-30 09:10:00,
2013-06-30 03:15:00,57.7,51.6,24.92,NW,308,8.1,8.1,80,0.00,,---,0.00,VWS V14.01,2013-06-30 09:15:00,
2013-06-30 03:20:00,57.9,51.8,24.92,WSW,249,5.4,7.2,80,0.00,,---,0.00,VWS V14.01,2013-06-30 09:20:00,
2013-06-30 03:25:00,57.9,51.5,24.92,West,274,6.3,6.3,79,0.00,,---,0.00,VWS V14.01,2013-06-30 09:25:00,
2013-06-30 03:30:00,57.9,51.1,24.92,WSW,240,3.1,4.9,78,0.00,,---,0.00,VWS V14.01,2013-06-30 09:30:00,
2013-06-30 03:35:00,58.1,51.3,24.92,WSW,256,5.4,6.3,78,0.00,,---,0.00,VWS V14.01,2013-06-30 09:35:00,
2013-06-30 03:40:00,58.1,50.9,24.92,SW,227,5.4,5.4,77,0.00,,---,0.00,VWS V14.01,2013-06-30 09:40:00,
2013-06-30 03:45:00,58.1,50.6,24.92,WSW,246,4.9,5.8,76,0.00,,---,0.00,VWS V14.01,2013-06-30 09:45:00,
2013-06-30 03:50:00,58.1,50.6,24.92,WSW,257,2.7,4.0,76,0.00,,---,0.00,VWS V14.01,2013-06-30 09:50:00,
2013-06-30 03:55:00,58.5,50.9,24.92,WSW,249,4.0,4.0,76,0.00,,---,0.00,VWS V14.01,2013-06-30 09:55:00,
2013-06-30 04:00:00,58.5,50.2,24.92,SW,235,7.2,7.2,74,0.00,,---,0.00,VWS V14.01,2013-06-30 10:00:00,
2013-06-30 04:05:00,58.3,50.0,24.92,West,271,4.0,4.9,74,0.00,,---,0.00,VWS V14.01,2013-06-30 10:05:00,
2013-06-30 04:10:00,57.6,49.3,24.92,West,262,4.0,7.6,74,0.00,,---,0.00,VWS V14.01,2013-06-30 10:10:00,
2013-06-30 04:15:00,57.2,49.7,24.92,WSW,251,7.2,7.2,76,0.00,,---,0.00,VWS V14.01,2013-06-30 10:15:00,
2013-06-30 04:20:00,56.8,50.1,24.92,West,272,5.8,5.8,78,0.00,,---,0.00,VWS V14.01,2013-06-30 10:20:00,
2013-06-30 04:25:00,56.7,50.2,24.92,West,263,5.4,5.4,79,0.00,,---,0.00,VWS V14.01,2013-06-30 10:25:00,
2013-06-30 04:30:00,56.5,50.4,24.92,SW,220,5.4,5.8,80,0.00,,---,0.00,VWS V14.01,2013-06-30 10:30:00,
2013-06-30 04:35:00,56.7,50.6,24.92,West,267,7.6,8.1,80,0.00,,---,0.00,VWS V14.01,2013-06-30 10:35:00,
2013-06-30 04:40:00,56.8,50.7,24.92,WSW,256,5.8,7.2,80,0.00,,---,0.00,VWS V14.01,2013-06-30 10:40:00,
2013-06-30 04:45:00,57.0,50.6,24.92,West,272,5.8,6.3,79,0.00,,---,0.00,VWS V14.01,2013-06-30 10:45:00,
2013-06-30 04:50:00,57.0,50.2,24.92,SW,221,7.6,7.6,78,0.00,,---,0.00,VWS V14.01,2013-06-30 10:50:00,
2013-06-30 04:55:00,57.0,49.9,24.92,West,262,4.9,5.8,77,0.00,,---,0.00,VWS V14.01,2013-06-30 10:55:00,
2013-06-30 05:00:00,56.8,49.7,24.92,WSW,237,5.4,5.4,77,0.00,,---,0.00,VWS V14.01,2013-06-30 11:00:00,
2013-06-30 05:05:00,56.7,49.5,24.92,WSW,244,3.1,6.3,77,0.00,,---,0.00,VWS V14.01,2013-06-30 11:05:00,
2013-06-30 05:10:00,56.3,49.5,24.92,SW,227,4.9,5.8,78,0.00,,---,0.00,VWS V14.01,2013-06-30 11:10:00,
2013-06-30 05:15:00,56.5,49.7,24.92,NW,317,3.1,4.0,78,0.00,,---,0.00,VWS V14.01,2013-06-30 11:15:00,
2013-06-30 05:20:00,56.7,50.2,24.92,West,259,3.6,3.6,79,0.00,,---,0.00,VWS V14.01,2013-06-30 11:20:00,
2013-06-30 05:25:00,56.7,50.2,24.92,West,270,6.3,6.3,79,0.00,,---,0.00,VWS V14.01,2013-06-30 11:25:00,
2013-06-30 05:30:00,57.0,50.2,24.92,WSW,248,8.7,8.7,78,0.00,,---,0.00,VWS V14.01,2013-06-30 11:30:00,
2013-06-30 05:35:00,57.2,49.7,24.92,West,267,5.4,5.4,76,0.00,,---,0.00,VWS V14.01,2013-06-30 11:35:00,
2013-06-30 05:40:00,57.2,49.4,24.92,SW,221,6.3,6.7,75,0.00,,---,0.00,VWS V14.01,2013-06-30 11:40:00,
2013-06-30 05:45:00,57.2,49.4,24.92,West,264,6.3,7.6,75,0.00,,---,0.00,VWS V14.01,2013-06-30 11:45:00,
2013-06-30 05:50:00,57.2,49.0,24.92,WSW,249,6.7,6.7,74,0.00,,---,0.00,VWS V14.01,2013-06-30 11:50:00,
2013-06-30 05:55:00,57.0,49.2,24.92,West,263,5.8,5.8,75,0.00,,---,0.00,VWS V14.01,2013-06-30 11:55:00,
2013-06-30 06:00:00,56.8,49.0,24.92,West,264,5.8,5.8,75,0.00,,---,0.00,VWS V14.01,2013-06-30 12:00:00,
2013-06-30 06:05:00,56.5,49.0,24.92,WSW,240,6.3,6.3,76,0.00,,---,0.00,VWS V14.01,2013-06-30 12:05:00,
2013-06-30 06:10:00,56.3,49.2,24.92,West,263,6.3,6.3,77,0.00,,---,0.00,VWS V14.01,2013-06-30 12:10:00,
2013-06-30 06:15:00,56.3,49.5,24.92,West,267,5.4,5.4,78,0.00,,---,0.00,VWS V14.01,2013-06-30 12:15:00,
2013-06-30 06:20:00,56.7,49.9,24.92,WSW,240,6.3,6.3,78,0.00,,---,0.00,VWS V14.01,2013-06-30 12:20:00,
2013-06-30 06:25:00,57.0,49.5,24.92,West,268,5.8,7.6,76,0.00,,---,0.00,VWS V14.01,2013-06-30 12:25:00,
2013-06-30 06:30:00,57.6,49.3,24.92,WNW,290,4.0,4.0,74,0.00,,---,0.00,VWS V14.01,2013-06-30 12:30:00,
2013-06-30 06:35:00,58.1,49.5,24.92,WSW,250,3.6,4.0,73,0.00,,---,0.00,VWS V14.01,2013-06-30 12:35:00,
2013-06-30 06:40:00,58.6,49.7,24.92,WSW,246,5.4,5.8,72,0.00,,---,0.00,VWS V14.01,2013-06-30 12:40:00,
2013-06-30 06:45:00,58.8,49.1,24.92,SSW,208,5.4,5.8,70,0.00,,---,0.00,VWS V14.01,2013-06-30 12:45:00,
2013-06-30 06:50:00,59.0,48.9,24.92,West,266,6.3,8.1,69,0.00,,---,0.00,VWS V14.01,2013-06-30 12:50:00,
2013-06-30 06:55:00,59.2,49.0,24.92,WNW,303,3.1,3.1,69,0.00,,---,0.00,VWS V14.01,2013-06-30 12:55:00,
2013-06-30 07:00:00,59.5,49.0,24.92,West,281,4.0,4.0,68,0.00,,---,0.00,VWS V14.01,2013-06-30 13:00:00,
2013-06-30 07:05:00,59.9,49.3,24.92,WNW,291,4.0,4.0,68,0.00,,---,0.00,VWS V14.01,2013-06-30 13:05:00,
2013-06-30 07:10:00,60.3,49.7,24.95,WNW,302,3.6,4.9,68,0.00,,---,0.00,VWS V14.01,2013-06-30 13:10:00,
2013-06-30 07:15:00,60.4,49.8,24.95,NNW,337,3.1,4.0,68,0.00,,---,0.00,VWS V14.01,2013-06-30 13:15:00,
2013-06-30 07:20:00,61.0,49.5,24.95,West,272,5.4,5.8,66,0.00,,---,0.00,VWS V14.01,2013-06-30 13:20:00,
2013-06-30 07:25:00,61.3,49.9,24.95,West,272,3.6,5.4,66,0.00,,---,0.00,VWS V14.01,2013-06-30 13:25:00,
2013-06-30 07:30:00,61.5,49.2,24.95,WNW,285,4.0,4.0,64,0.00,,---,0.00,VWS V14.01,2013-06-30 13:30:00,
2013-06-30 07:35:00,61.7,49.4,24.95,WNW,301,3.1,3.6,64,0.00,,---,0.00,VWS V14.01,2013-06-30 13:35:00,
2013-06-30 07:40:00,62.1,49.8,24.92,WSW,248,0.0,0.0,64,0.00,,---,0.00,VWS V14.01,2013-06-30 13:40:00,
2013-06-30 07:45:00,62.1,49.8,24.92,West,263,0.0,0.0,64,0.00,,---,0.00,VWS V14.01,2013-06-30 13:45:00,
2013-06-30 07:50:00,61.9,49.6,24.92,WNW,299,2.7,2.7,64,0.00,,---,0.00,VWS V14.01,2013-06-30 13:50:00,
2013-06-30 07:55:00,61.5,49.2,24.95,WSW,249,2.7,2.7,64,0.00,,---,0.00,VWS V14.01,2013-06-30 13:55:00,
2013-06-30 08:00:00,61.2,49.3,24.95,West,263,3.1,3.6,65,0.00,,---,0.00,VWS V14.01,2013-06-30 14:00:00,
2013-06-30 08:05:00,61.0,49.5,24.95,West,272,0.0,0.0,66,0.00,,---,0.00,VWS V14.01,2013-06-30 14:05:00,
2013-06-30 08:10:00,61.0,50.4,24.95,West,266,2.7,3.6,68,0.00,,---,0.00,VWS V14.01,2013-06-30 14:10:00,
2013-06-30 08:15:00,61.5,50.9,24.95,West,260,2.7,3.6,68,0.00,,---,0.00,VWS V14.01,2013-06-30 14:15:00,
2013-06-30 08:20:00,62.1,51.4,24.95,WSW,249,3.1,4.0,68,0.00,,---,0.00,VWS V14.01,2013-06-30 14:20:00,
2013-06-30 08:25:00,63.0,51.4,24.95,WNW,302,2.7,2.7,66,0.00,,---,0.00,VWS V14.01,2013-06-30 14:25:00,
2013-06-30 08:30:00,63.9,51.9,24.95,WNW,302,0.0,0.0,65,0.00,,---,0.00,VWS V14.01,2013-06-30 14:30:00,
2013-06-30 08:35:00,64.4,50.2,24.95,WNW,302,0.0,0.0,60,0.00,,---,0.00,VWS V14.01,2013-06-30 14:35:00,
2013-06-30 08:40:00,65.3,50.2,24.95,NNW,339,0.0,0.0,58,0.00,,---,0.00,VWS V14.01,2013-06-30 14:40:00,
2013-06-30 08:45:00,65.7,49.1,24.95,NW,323,3.6,3.6,55,0.00,,---,0.00,VWS V14.01,2013-06-30 14:45:00,
2013-06-30 08:50:00,65.8,49.2,24.95,WNW,302,0.0,0.0,55,0.00,,---,0.00,VWS V14.01,2013-06-30 14:50:00,
2013-06-30 08:55:00,66.0,49.4,24.95,WNW,303,0.0,0.0,55,0.00,,---,0.00,VWS V14.01,2013-06-30 14:55:00,
2013-06-30 09:00:00,66.6,49.4,24.95,WNW,302,0.0,0.0,54,0.00,,---,0.00,VWS V14.01,2013-06-30 15:00:00,
2013-06-30 09:05:00,66.9,50.2,24.95,WNW,302,0.0,0.0,55,0.00,,---,0.00,VWS V14.01,2013-06-30 15:05:00,
2013-06-30 09:10:00,67.5,50.2,24.95,NW,324,0.0,0.0,54,0.00,,---,0.00,VWS V14.01,2013-06-30 15:10:00,
2013-06-30 09:15:00,68.4,50.1,24.95,NNE,13,0.0,2.7,52,0.00,,---,0.00,VWS V14.01,2013-06-30 15:15:00,
2013-06-30 09:20:00,69.1,50.2,24.95,NNE,13,0.0,0.0,51,0.00,,---,0.00,VWS V14.01,2013-06-30 15:20:00,
2013-06-30 09:25:00,69.8,49.8,24.95,East,79,2.2,3.1,49,0.00,,---,0.00,VWS V14.01,2013-06-30 15:25:00,
2013-06-30 09:30:00,70.5,49.9,24.95,ENE,67,3.1,4.0,48,0.00,,---,0.00,VWS V14.01,2013-06-30 15:30:00,
2013-06-30 09:35:00,71.2,49.4,24.95,NE,43,3.1,3.1,46,0.00,,---,0.00,VWS V14.01,2013-06-30 15:35:00,
2013-06-30 09:40:00,71.6,50.3,24.95,NE,38,2.7,5.8,47,0.00,,---,0.00,VWS V14.01,2013-06-30 15:40:00,
2013-06-30 09:45:00,71.8,49.9,24.95,NE,54,5.4,5.4,46,0.00,,---,0.00,VWS V14.01,2013-06-30 15:45:00,
2013-06-30 09:50:00,72.1,49.0,24.95,NNE,22,3.1,4.0,44,0.00,,---,0.00,VWS V14.01,2013-06-30 15:50:00,
2013-06-30 09:55:00,72.1,49.0,24.95,ENE,62,2.7,4.0,44,0.00,,---,0.00,VWS V14.01,2013-06-30 15:55:00,
2013-06-30 10:00:00,72.9,50.3,24.95,NE,49,4.9,6.3,45,0.00,,---,0.00,VWS V14.01,2013-06-30 16:00:00,
2013-06-30 10:05:00,73.2,50.0,24.95,ENE,59,3.1,3.1,44,0.00,,---,0.00,VWS V14.01,2013-06-30 16:05:00,
2013-06-30 10:10:00,73.8,49.9,24.95,East,87,5.4,5.4,43,0.00,,---,0.00,VWS V14.01,2013-06-30 16:10:00,
2013-06-30 10:15:00,73.9,50.1,24.95,ENE,69,4.0,4.0,43,0.00,,---,0.00,VWS V14.01,2013-06-30 16:15:00,
2013-06-30 10:20:00,74.1,49.6,24.95,NE,56,4.9,5.4,42,0.00,,---,0.00,VWS V14.01,2013-06-30 16:20:00,
2013-06-30 10:25:00,74.5,49.9,24.95,ENE,73,2.2,2.2,42,0.00,,---,0.00,VWS V14.01,2013-06-30 16:25:00,
2013-06-30 10:30:00,74.7,50.1,24.95,North,9,3.1,5.8,42,0.00,,---,0.00,VWS V14.01,2013-06-30 16:30:00,
2013-06-30 10:35:00,75.0,50.4,24.95,ENE,65,4.0,4.0,42,0.00,,---,0.00,VWS V14.01,2013-06-30 16:35:00,
2013-06-30 10:40:00,75.6,50.9,24.95,East,82,3.1,4.0,42,0.00,,---,0.00,VWS V14.01,2013-06-30 16:40:00,
2013-06-30 10:45:00,75.7,50.4,24.95,NE,56,2.7,4.0,41,0.00,,---,0.00,VWS V14.01,2013-06-30 16:45:00,
2013-06-30 10:50:00,76.3,49.5,24.95,ENE,75,2.7,4.0,39,0.00,,---,0.00,VWS V14.01,2013-06-30 16:50:00,
2013-06-30 10:55:00,76.8,50.7,24.95,ENE,64,4.0,5.4,40,0.00,,---,0.00,VWS V14.01,2013-06-30 16:55:00,
2013-06-30 11:00:00,77.4,49.8,24.95,NE,54,2.7,5.4,38,0.00,,---,0.00,VWS V14.01,2013-06-30 17:00:00,
2013-06-30 11:05:00,77.7,49.4,24.95,NE,36,6.3,6.3,37,0.00,,---,0.00,VWS V14.01,2013-06-30 17:05:00,
2013-06-30 11:10:00,78.1,49.7,24.95,NE,50,4.0,4.0,37,0.00,,---,0.00,VWS V14.01,2013-06-30 17:10:00,
2013-06-30 11:15:00,78.3,47.6,24.95,NE,46,5.8,5.8,34,0.00,,---,0.00,VWS V14.01,2013-06-30 17:15:00,
2013-06-30 11:20:00,78.6,47.1,24.95,NE,49,5.8,6.3,33,0.00,,---,0.00,VWS V14.01,2013-06-30 17:20:00,
2013-06-30 11:25:00,78.8,46.5,24.95,NNE,25,7.6,7.6,32,0.00,,---,0.00,VWS V14.01,2013-06-30 17:25:00,
2013-06-30 11:30:00,79.0,46.6,24.95,NNE,33,8.1,8.1,32,0.00,,---,0.00,VWS V14.01,2013-06-30 17:30:00,
2013-06-30 11:35:00,79.0,46.6,24.95,NE,47,8.7,8.7,32,0.00,,---,0.00,VWS V14.01,2013-06-30 17:35:00,
2013-06-30 11:40:00,79.3,47.0,24.95,ENE,75,5.4,5.4,32,0.00,,---,0.00,VWS V14.01,2013-06-30 17:40:00,
2013-06-30 11:45:00,79.5,47.1,24.95,NNE,31,5.4,5.4,32,0.00,,---,0.00,VWS V14.01,2013-06-30 17:45:00,
2013-06-30 11:50:00,80.1,47.6,24.95,NNE,32,7.6,7.6,32,0.00,,---,0.00,VWS V14.01,2013-06-30 17:50:00,
2013-06-30 11:55:00,80.4,47.9,24.95,North,357,4.9,5.8,32,0.00,,---,0.00,VWS V14.01,2013-06-30 17:55:00,
2013-06-30 12:00:00,80.4,47.9,24.95,NE,48,3.1,4.0,32,0.00,,---,0.00,VWS V14.01,2013-06-30 18:00:00,
2013-06-30 12:05:00,81.0,49.2,24.95,East,83,3.6,5.4,33,0.00,,---,0.00,VWS V14.01,2013-06-30 18:05:00,
2013-06-30 12:10:00,81.5,48.8,24.95,ENE,63,8.3,9.2,32,0.00,,---,0.00,VWS V14.01,2013-06-30 18:10:00,
2013-06-30 12:15:00,81.7,48.1,24.95,ENE,64,3.6,4.9,31,0.00,,---,0.00,VWS V14.01,2013-06-30 18:15:00,
2013-06-30 12:20:00,82.0,48.5,24.95,NE,55,5.4,6.7,31,0.00,,---,0.00,VWS V14.01,2013-06-30 18:20:00,
2013-06-30 12:25:00,82.2,48.6,24.95,NNE,20,5.4,5.4,31,0.00,,---,0.00,VWS V14.01,2013-06-30 18:25:00,
2013-06-30 12:30:00,82.4,48.8,24.95,East,90,5.4,5.4,31,0.00,,---,0.00,VWS V14.01,2013-06-30 18:30:00,
2013-06-30 12:35:00,82.8,48.2,24.95,NE,53,5.4,5.4,30,0.00,,---,0.00,VWS V14.01,2013-06-30 18:35:00,
2013-06-30 12:40:00,82.9,48.3,24.95,NE,52,3.6,3.6,30,0.00,,---,0.00,VWS V14.01,2013-06-30 18:40:00,
2013-06-30 12:45:00,83.3,48.7,24.95,ENE,73,5.4,5.4,30,0.00,,---,0.00,VWS V14.01,2013-06-30 18:45:00,
2013-06-30 12:50:00,83.8,49.1,24.95,ENE,57,4.0,4.0,30,0.00,,---,0.00,VWS V14.01,2013-06-30 18:50:00,
2013-06-30 12:55:00,84.0,49.3,24.95,NE,47,4.0,5.8,30,0.00,,---,0.00,VWS V14.01,2013-06-30 18:55:00,
2013-06-30 13:00:00,84.2,49.4,24.95,North,357,3.1,3.1,30,0.00,,---,0.00,VWS V14.01,2013-06-30 19:00:00,
2013-06-30 13:05:00,83.7,49.0,24.95,NE,52,4.0,5.8,30,0.00,,---,0.00,VWS V14.01,2013-06-30 19:05:00,
2013-06-30 13:10:00,84.2,50.3,24.95,ENE,65,3.1,4.9,31,0.00,,---,0.00,VWS V14.01,2013-06-30 19:10:00,
2013-06-30 13:15:00,84.6,49.8,24.95,NNE,21,3.1,3.1,30,0.00,,---,0.00,VWS V14.01,2013-06-30 19:15:00,
2013-06-30 13:20:00,83.7,49.8,24.95,ENE,60,3.6,3.6,31,0.00,,---,0.00,VWS V14.01,2013-06-30 19:20:00,
2013-06-30 13:25:00,83.8,50.0,24.95,NNE,18,4.0,4.0,31,0.00,,---,0.00,VWS V14.01,2013-06-30 19:25:00,
2013-06-30 13:30:00,85.1,50.2,24.95,NE,52,6.3,6.7,30,0.00,,---,0.00,VWS V14.01,2013-06-30 19:30:00,
2013-06-30 13:35:00,85.8,50.8,24.95,ENE,64,4.5,4.5,30,0.00,,---,0.00,VWS V14.01,2013-06-30 19:35:00,
2013-06-30 13:40:00,86.4,50.4,24.92,NNE,30,5.8,5.8,29,0.00,,---,0.00,VWS V14.01,2013-06-30 19:40:00,
2013-06-30 13:45:00,86.7,50.7,24.92,ESE,103,6.3,6.3,29,0.00,,---,0.00,VWS V14.01,2013-06-30 19:45:00,
2013-06-30 13:50:00,86.9,50.8,24.92,NE,47,12.3,12.3,29,0.00,,---,0.00,VWS V14.01,2013-06-30 19:50:00,
2013-06-30 13:55:00,86.4,50.4,24.95,NNE,33,3.1,3.1,29,0.00,,---,0.00,VWS V14.01,2013-06-30 19:55:00,
2013-06-30 14:00:00,86.5,50.5,24.95,ENE,68,3.1,8.3,29,0.00,,---,0.00,VWS V14.01,2013-06-30 20:00:00,
2013-06-30 14:05:00,87.3,51.2,24.95,NE,51,3.6,3.6,29,0.00,,---,0.00,VWS V14.01,2013-06-30 20:05:00,
2013-06-30 14:10:00,87.6,51.5,24.95,NE,45,5.8,5.8,29,0.00,,---,0.00,VWS V14.01,2013-06-30 20:10:00,
2013-06-30 14:15:00,87.6,51.5,24.95,NE,55,5.8,5.8,29,0.00,,---,0.00,VWS V14.01,2013-06-30 20:15:00,
2013-06-30 14:20:00,87.4,51.3,24.95,ENE,71,3.6,5.4,29,0.00,,---,0.00,VWS V14.01,2013-06-30 20:20:00,
2013-06-30 14:25:00,86.5,50.5,24.95,SE,124,5.4,5.4,29,0.00,,---,0.00,VWS V14.01,2013-06-30 20:25:00,
2013-06-30 14:30:00,86.2,51.1,24.95,ENE,62,5.8,5.8,30,0.00,,---,0.00,VWS V14.01,2013-06-30 20:30:00,
2013-06-30 14:35:00,86.5,50.5,24.95,NNE,30,2.2,2.7,29,0.00,,---,0.00,VWS V14.01,2013-06-30 20:35:00,
2013-06-30 14:40:00,86.9,50.8,24.92,NE,51,4.0,4.0,29,0.00,,---,0.00,VWS V14.01,2013-06-30 20:40:00,
2013-06-30 14:45:00,87.3,51.2,24.92,NE,46,5.8,8.1,29,0.00,,---,0.00,VWS V14.01,2013-06-30 20:45:00,
2013-06-30 14:50:00,88.0,51.8,24.92,NE,37,3.1,3.6,29,0.00,,---,0.00,VWS V14.01,2013-06-30 20:50:00,
2013-06-30 14:55:00,88.2,51.0,24.95,SE,135,0.0,4.0,28,0.00,,---,0.00,VWS V14.01,2013-06-30 20:55:00,
2013-06-30 15:00:00,87.4,51.3,24.95,NE,47,0.0,2.7,29,0.00,,---,0.00,VWS V14.01,2013-06-30 21:00:00,
2013-06-30 15:05:00,87.3,51.2,24.95,NE,41,8.3,8.3,29,0.00,,---,0.00,VWS V14.01,2013-06-30 21:05:00,
2013-06-30 15:10:00,88.2,51.0,24.95,NE,52,6.3,7.6,28,0.00,,---,0.00,VWS V14.01,2013-06-30 21:10:00,
2013-06-30 15:15:00,88.7,51.4,24.95,NE,55,3.6,4.9,28,0.00,,---,0.00,VWS V14.01,2013-06-30 21:15:00,
2013-06-30 15:20:00,89.4,52.1,24.95,ESE,103,3.1,3.1,28,0.00,,---,0.00,VWS V14.01,2013-06-30 21:20:00,
2013-06-30 15:25:00,89.4,52.1,24.92,ENE,66,4.0,4.0,28,0.00,,---,0.00,VWS V14.01,2013-06-30 21:25:00,
2013-06-30 15:30:00,89.6,51.2,24.92,NE,49,8.1,8.1,27,0.00,,---,0.00,VWS V14.01,2013-06-30 21:30:00,
2013-06-30 15:35:00,88.7,49.5,24.92,ESE,109,3.6,5.4,26,0.00,,---,0.00,VWS V14.01,2013-06-30 21:35:00,
2013-06-30 15:40:00,87.8,50.7,24.95,NE,36,5.8,6.3,28,0.00,,---,0.00,VWS V14.01,2013-06-30 21:40:00,
2013-06-30 15:45:00,88.7,51.4,24.95,NNE,32,5.8,6.3,28,0.00,,---,0.00,VWS V14.01,2013-06-30 21:45:00,
2013-06-30 15:50:00,89.6,50.2,24.95,NE,37,4.0,6.3,26,0.00,,---,0.00,VWS V14.01,2013-06-30 21:50:00,
2013-06-30 15:55:00,89.8,51.4,24.95,ENE,63,5.8,6.3,27,0.00,,---,0.00,VWS V14.01,2013-06-30 21:55:00,
2013-06-30 16:00:00,89.8,49.3,24.95,NW,316,3.1,3.6,25,0.00,,---,0.00,VWS V14.01,2013-06-30 22:00:00,
2013-06-30 16:05:00,89.1,48.7,24.95,ENE,68,6.3,6.3,25,0.00,,---,0.00,VWS V14.01,2013-06-30 22:05:00,
2013-06-30 16:10:00,88.9,49.6,24.95,North,357,3.6,4.0,26,0.00,,---,0.00,VWS V14.01,2013-06-30 22:10:00,
2013-06-30 16:15:00,88.7,48.4,24.95,NE,50,9.2,9.2,25,0.00,,---,0.00,VWS V14.01,2013-06-30 22:15:00,
2013-06-30 16:20:00,88.5,49.3,24.95,NNE,16,2.7,6.3,26,0.00,,---,0.00,VWS V14.01,2013-06-30 22:20:00,
2013-06-30 16:25:00,88.2,49.0,24.95,NW,319,0.0,0.0,26,0.00,,---,0.00,VWS V14.01,2013-06-30 22:25:00,
2013-06-30 16:30:00,88.5,49.3,24.95,NNE,31,3.6,7.6,26,0.00,,---,0.00,VWS V14.01,2013-06-30 22:30:00,
2013-06-30 16:35:00,89.1,49.8,24.95,NE,37,8.1,8.1,26,0.00,,---,0.00,VWS V14.01,2013-06-30 22:35:00,
2013-06-30 16:40:00,89.2,48.8,24.95,NW,321,3.6,4.0,25,0.00,,---,0.00,VWS V14.01,2013-06-30 22:40:00,
2013-06-30 16:45:00,87.8,47.6,24.95,NNE,25,8.1,8.1,25,0.00,,---,0.00,VWS V14.01,2013-06-30 22:45:00,
2013-06-30 16:50:00,88.0,47.8,24.95,NE,52,10.1,10.1,25,0.00,,---,0.00,VWS V14.01,2013-06-30 22:50:00,
2013-06-30 16:55:00,88.3,48.1,24.95,North,357,4.0,6.3,25,0.00,,---,0.00,VWS V14.01,2013-06-30 22:55:00,
2013-06-30 17:00:00,88.2,47.9,24.95,NNE,33,7.6,7.6,25,0.00,,---,0.00,VWS V14.01,2013-06-30 23:00:00,
2013-06-30 17:05:00,88.5,47.2,24.95,North,1,2.7,6.3,24,0.00,,---,0.00,VWS V14.01,2013-06-30 23:05:00,
2013-06-30 17:10:00,87.6,47.5,24.95,NE,52,5.4,5.4,25,0.00,,---,0.00,VWS V14.01,2013-06-30 23:10:00,
2013-06-30 17:15:00,87.3,47.2,24.95,North,3,6.7,6.7,25,0.00,,---,0.00,VWS V14.01,2013-06-30 23:15:00,
2013-06-30 17:20:00,86.5,47.6,24.95,NNE,16,6.3,8.7,26,0.00,,---,0.00,VWS V14.01,2013-06-30 23:20:00,
2013-06-30 17:25:00,87.1,48.1,24.95,NE,41,11.0,11.0,26,0.00,,---,0.00,VWS V14.01,2013-06-30 23:25:00,
2013-06-30 17:30:00,86.9,47.9,24.95,NNE,22,0.0,4.0,26,0.00,,---,0.00,VWS V14.01,2013-06-30 23:30:00,
2013-06-30 17:35:00,86.0,47.2,24.95,NNE,14,3.1,3.6,26,0.00,,---,0.00,VWS V14.01,2013-06-30 23:35:00,
2013-06-30 17:40:00,85.8,48.0,24.95,NE,44,2.7,5.4,27,0.00,,---,0.00,VWS V14.01,2013-06-30 23:40:00,
2013-06-30 17:45:00,86.2,48.3,24.95,ENE,64,4.0,4.9,27,0.00,,---,0.00,VWS V14.01,2013-06-30 23:45:00,
2013-06-30 17:50:00,86.2,47.3,24.95,NE,50,4.0,4.0,26,0.00,,---,0.00,VWS V14.01,2013-06-30 23:50:00,
2013-06-30 17:55:00,86.2,47.3,24.95,NNE,27,6.3,6.3,26,0.00,,---,0.00,VWS V14.01,2013-06-30 23:55:00,
2013-06-30 18:00:00,86.7,46.7,24.95,North,10,5.8,5.8,25,0.00,,---,0.00,VWS V14.01,2013-07-01 00:00:00,
2013-06-30 18:05:00,87.1,47.0,24.95,NE,35,2.2,8.7,25,0.00,,---,0.00,VWS V14.01,2013-07-01 00:05:00,
2013-06-30 18:10:00,87.4,47.3,24.95,NE,45,5.8,8.7,25,0.00,,---,0.00,VWS V14.01,2013-07-01 00:10:00,
2013-06-30 18:15:00,87.3,46.1,24.95,NE,34,3.1,5.8,24,0.00,,---,0.00,VWS V14.01,2013-07-01 00:15:00,
2013-06-30 18:20:00,86.4,46.4,24.95,NE,42,0.0,3.1,25,0.00,,---,0.00,VWS V14.01,2013-07-01 00:20:00,
2013-06-30 18:25:00,86.5,45.5,24.95,ENE,67,3.1,4.0,24,0.00,,---,0.00,VWS V14.01,2013-07-01 00:25:00,
2013-06-30 18:30:00,87.1,46.0,24.95,NE,44,4.9,6.3,24,0.00,,---,0.00,VWS V14.01,2013-07-01 00:30:00,
2013-06-30 18:35:00,87.4,46.2,24.95,NE,52,3.1,4.0,24,0.00,,---,0.00,VWS V14.01,2013-07-01 00:35:00,
2013-06-30 18:40:00,88.0,45.6,24.95,NE,46,5.8,5.8,23,0.00,,---,0.00,VWS V14.01,2013-07-01 00:40:00,
2013-06-30 18:45:00,88.2,45.7,24.95,North,357,2.2,4.9,23,0.00,,---,0.00,VWS V14.01,2013-07-01 00:45:00,
2013-06-30 18:50:00,88.3,45.9,24.95,NE,44,4.9,5.4,23,0.00,,---,0.00,VWS V14.01,2013-07-01 00:50:00,
2013-06-30 18:55:00,88.3,45.9,24.95,NNE,24,2.2,6.3,23,0.00,,---,0.00,VWS V14.01,2013-07-01 00:55:00,
2013-06-30 19:00:00,88.0,45.6,24.95,North,357,3.1,4.0,23,0.00,,---,0.00,VWS V14.01,2013-07-01 01:00:00,
2013-06-30 19:05:00,87.4,45.1,24.95,North,353,4.0,4.0,23,0.00,,---,0.00,VWS V14.01,2013-07-01 01:05:00,
2013-06-30 19:10:00,86.5,44.4,24.95,NW,322,3.1,5.4,23,0.00,,---,0.00,VWS V14.01,2013-07-01 01:10:00,
2013-06-30 19:15:00,86.4,44.2,24.95,NW,324,2.2,3.1,23,0.00,,---,0.00,VWS V14.01,2013-07-01 01:15:00,
2013-06-30 19:20:00,86.7,44.5,24.95,North,11,0.0,2.7,23,0.00,,---,0.00,VWS V14.01,2013-07-01 01:20:00,
2013-06-30 19:25:00,86.7,44.5,24.95,NNW,341,0.0,0.0,23,0.00,,---,0.00,VWS V14.01,2013-07-01 01:25:00,
2013-06-30 19:30:00,86.5,43.2,24.95,NE,54,0.0,6.3,22,0.00,,---,0.00,VWS V14.01,2013-07-01 01:30:00,
2013-06-30 19:35:00,86.4,44.2,24.95,NNW,330,2.7,2.7,23,0.00,,---,0.00,VWS V14.01,2013-07-01 01:35:00,
2013-06-30 19:40:00,86.4,43.1,24.95,NNW,341,2.7,7.2,22,0.00,,---,0.00,VWS V14.01,2013-07-01 01:40:00,
2013-06-30 19:45:00,86.4,44.2,24.95,NW,321,0.0,0.0,23,0.00,,---,0.00,VWS V14.01,2013-07-01 01:45:00,
2013-06-30 19:50:00,86.4,44.2,24.95,NNW,340,4.0,4.0,23,0.00,,---,0.00,VWS V14.01,2013-07-01 01:50:00,
2013-06-30 19:55:00,86.2,44.1,24.95,NE,39,3.1,3.1,23,0.00,,---,0.00,VWS V14.01,2013-07-01 01:55:00,
2013-06-30 20:00:00,85.8,43.8,24.95,NE,36,2.2,3.6,23,0.00,,---,0.00,VWS V14.01,2013-07-01 02:00:00,
2013-06-30 20:05:00,85.6,43.6,24.95,NE,44,0.0,0.0,23,0.00,,---,0.00,VWS V14.01,2013-07-01 02:05:00,
2013-06-30 20:10:00,85.3,43.3,24.92,NW,325,0.0,0.0,23,0.00,,---,0.00,VWS V14.01,2013-07-01 02:10:00,
2013-06-30 20:15:00,84.4,43.7,24.92,NNW,338,0.0,0.0,24,0.00,,---,0.00,VWS V14.01,2013-07-01 02:15:00,
2013-06-30 20:20:00,83.7,43.1,24.92,NNW,338,0.0,0.0,24,0.00,,---,0.00,VWS V14.01,2013-07-01 02:20:00,
2013-06-30 20:25:00,83.5,44.0,24.95,NNW,338,0.0,0.0,25,0.00,,---,0.00,VWS V14.01,2013-07-01 02:25:00,
2013-06-30 20:29:00,83.3,43.8,24.95,NNW,338,0.0,0.0,25,0.00,,---,0.00,VWS V14.01,2013-07-01 02:29:00,
2013-06-30 20:34:00,83.3,43.8,24.95,NW,322,0.0,0.0,25,0.00,,---,0.00,VWS V14.01,2013-07-01 02:34:00,
2013-06-30 20:39:00,82.8,43.4,24.92,NW,316,0.0,0.0,25,0.00,,---,0.00,VWS V14.01,2013-07-01 02:39:00,
2013-06-30 20:44:00,81.9,43.7,24.92,WNW,303,0.0,0.0,26,0.00,,---,0.00,VWS V14.01,2013-07-01 02:44:00,
2013-06-30 20:49:00,80.8,42.7,24.92,WNW,303,0.0,0.0,26,0.00,,---,0.00,VWS V14.01,2013-07-01 02:49:00,
2013-06-30 20:54:00,79.9,43.0,24.95,WNW,303,0.0,0.0,27,0.00,,---,0.00,VWS V14.01,2013-07-01 02:54:00,
2013-06-30 20:59:00,79.3,43.4,24.95,WNW,303,0.0,0.0,28,0.00,,---,0.00,VWS V14.01,2013-07-01 02:59:00,
2013-06-30 21:04:00,78.6,43.7,24.95,WNW,298,0.0,0.0,29,0.00,,---,0.00,VWS V14.01,2013-07-01 03:04:00,
2013-06-30 21:09:00,78.3,43.4,24.95,WNW,302,2.2,2.7,29,0.00,,---,0.00,VWS V14.01,2013-07-01 03:09:00,
2013-06-30 21:14:00,77.7,44.7,24.95,West,272,0.0,0.0,31,0.00,,---,0.00,VWS V14.01,2013-07-01 03:14:00,
2013-06-30 21:19:00,76.8,44.8,24.95,West,264,0.0,0.0,32,0.00,,---,0.00,VWS V14.01,2013-07-01 03:19:00,
2013-06-30 21:24:00,76.3,44.3,24.95,West,262,0.0,0.0,32,0.00,,---,0.00,VWS V14.01,2013-07-01 03:24:00,
2013-06-30 21:29:00,75.9,44.8,24.95,WSW,244,0.0,0.0,33,0.00,,---,0.00,VWS V14.01,2013-07-01 03:29:00,
2013-06-30 21:34:00,75.7,44.6,24.95,West,272,2.7,2.7,33,0.00,,---,0.00,VWS V14.01,2013-07-01 03:34:00,
2013-06-30 21:39:00,75.2,44.9,24.95,West,271,2.7,3.6,34,0.00,,---,0.00,VWS V14.01,2013-07-01 03:39:00,
2013-06-30 21:44:00,74.8,45.4,24.95,West,273,0.0,0.0,35,0.00,,---,0.00,VWS V14.01,2013-07-01 03:44:00,
2013-06-30 21:49:00,74.3,44.9,24.95,WNW,291,4.0,5.4,35,0.00,,---,0.00,VWS V14.01,2013-07-01 03:49:00,
2013-06-30 21:54:00,73.6,45.0,24.95,WNW,302,3.6,4.5,36,0.00,,---,0.00,VWS V14.01,2013-07-01 03:54:00,
2013-06-30 21:59:00,73.2,46.1,24.95,WSW,249,4.0,4.9,38,0.00,,---,0.00,VWS V14.01,2013-07-01 03:59:00,
2013-06-30 22:01:00,73.0,46.6,24.95,WNW,290,3.1,4.0,39,0.00,,---,0.00,VWS V14.01,2013-07-01 04:01:00,
2013-06-30 22:06:00,72.7,46.3,24.95,West,270,4.0,4.0,39,0.00,,---,0.00,VWS V14.01,2013-07-01 04:06:00,
2013-06-30 22:11:00,72.1,46.5,24.95,West,270,2.7,3.6,40,0.00,,---,0.00,VWS V14.01,2013-07-01 04:11:00,
2013-06-30 22:16:00,72.0,47.0,24.95,West,261,3.1,3.1,41,0.00,,---,0.00,VWS V14.01,2013-07-01 04:16:00,
2013-06-30 22:21:00,71.6,46.7,24.95,West,273,3.6,4.0,41,0.00,,---,0.00,VWS V14.01,2013-07-01 04:21:00,
2013-06-30 22:26:00,71.2,47.0,24.98,WSW,243,3.6,4.0,42,0.00,,---,0.00,VWS V14.01,2013-07-01 04:26:00,
2013-06-30 22:31:00,70.7,46.5,24.98,WNW,282,4.0,4.0,42,0.00,,---,0.00,VWS V14.01,2013-07-01 04:31:00,
2013-06-30 22:36:00,70.3,46.8,24.98,WNW,295,3.6,4.9,43,0.00,,---,0.00,VWS V14.01,2013-07-01 04:36:00,
2013-06-30 22:41:00,70.0,47.1,24.98,WNW,287,3.1,5.8,44,0.00,,---,0.00,VWS V14.01,2013-07-01 04:41:00,
2013-06-30 22:46:00,69.6,47.4,24.98,WNW,289,3.1,5.4,45,0.00,,---,0.00,VWS V14.01,2013-07-01 04:46:00,
2013-06-30 22:51:00,69.3,47.0,24.98,WSW,247,4.0,4.0,45,0.00,,---,0.00,VWS V14.01,2013-07-01 04:51:00,
2013-06-30 22:56:00,68.9,47.3,24.98,West,259,6.3,6.3,46,0.00,,---,0.00,VWS V14.01,2013-07-01 04:56:00,
2013-06-30 23:01:00,68.5,47.0,24.98,West,278,6.3,6.3,46,0.00,,---,0.00,VWS V14.01,2013-07-01 05:01:00,
2013-06-30 23:06:00,68.0,47.6,24.98,WSW,246,4.0,6.3,48,0.00,,---,0.00,VWS V14.01,2013-07-01 05:06:00,
2013-06-30 23:11:00,67.5,47.7,24.95,WNW,296,3.1,4.0,49,0.00,,---,0.00,VWS V14.01,2013-07-01 05:11:00,
2013-06-30 23:16:00,67.1,47.9,24.95,WSW,246,5.8,6.7,50,0.00,,---,0.00,VWS V14.01,2013-07-01 05:16:00,
2013-06-30 23:21:00,66.9,48.2,24.95,SW,226,6.3,6.3,51,0.00,,---,0.00,VWS V14.01,2013-07-01 05:21:00,
2013-06-30 23:26:00,66.7,48.6,24.98,WNW,290,6.3,6.3,52,0.00,,---,0.00,VWS V14.01,2013-07-01 05:26:00,
2013-06-30 23:31:00,66.7,48.6,24.98,West,264,4.0,6.3,52,0.00,,---,0.00,VWS V14.01,2013-07-01 05:31:00,
2013-06-30 23:36:00,66.7,48.1,24.98,West,263,3.1,3.6,51,0.00,,---,0.00,VWS V14.01,2013-07-01 05:36:00,
2013-06-30 23:41:00,66.7,48.1,24.98,West,266,5.8,6.3,51,0.00,,---,0.00,VWS V14.01,2013-07-01 05:41:00,
2013-06-30 23:46:00,66.7,48.1,24.98,SW,234,4.0,4.0,51,0.00,,---,0.00,VWS V14.01,2013-07-01 05:46:00,
2013-06-30 23:51:00,66.6,47.9,24.98,WSW,239,0.0,0.0,51,0.00,,---,0.00,VWS V14.01,2013-07-01 05:51:00,
2013-06-30 23:56:00,66.4,47.2,24.98,WSW,238,0.0,0.0,50,0.00,,---,0.00,VWS V14.01,2013-07-01 05:56:00,